STARLINK-36341, 67918

Orbit data source: Space-Track

STARLINK-36341, 67918 is a payload satellite owned by SpaceX/Seattle (US) in LEO that was launched on Sun, 22 Feb 2026 UTC via an FALCON 9 launch vehicle from the Air Force Eastern Test Range (AFETR). Payload-class satellites include a variety of spacecraft equipped with specific instruments for various scientific and technological missions. These include communications satellites like Starlink; space stations such as the ISS; scientific satellites like the Hubble; Earth observation satellites from companies like Planet Labs, Umbra, and HawkEye 360; GPS; miniature CubeSats for education and research; and military/defense satellites.

Loading next visibility...
Identifier
67918, 2026-036Q
Orbit
LEO
Country
Flag of USUS
Related business
Manufacturer
SpaceX/Seattle
Mission
Operational spacecraft
Bus & Motor
STARLINK V2MO, Unknown motor
Mass
575 kg wet, ~530 kg dry
Launch date (UTC)
2026-02-22 (2 months ago)
Launch vehicle
FALCON 9
Launch site
Air Force Eastern Test Range (AFETR)
Object type
Payload
Rocket body
Debris
Shape & HBR
Unknown shape, 17.7 m
Radar Cross Section
RCS unknown

Expand to show TLE details & history
Last TLE update: 11 hours ago

TLE from 11 hours ago
0 STARLINK-36341
1 67918U 26036Q   26103.90957162  .00012398  00000-0  45927-3 0  9992
2 67918  43.0016  46.7939 0001334 242.1415 117.9302 15.27581890  9104
Epoch: 2026-04-13T21:49Z
TLE epoch observation values (Epoch: 2026-04-13T21:49:46.987Z)
Latitude
-0.00001°
Longitude
-122.7453°
Altitude
483.248 km
Speed
7.625 km/s
True Right ascension
03h 07m 10s
True Declination
0° 00' 00"
Sunlit
Object was in daylight at epoch
Visualization orbit readout
Latitude
Unknown
Longitude
Unknown
Altitude
Unknown
Speed
Unknown
Apparent Right ascension
Unknown
Apparent Declination
Unknown
Sunlit
N/A
Visualization observer readout
Local Sidereal Time
15:09:17
Azimuth
Unknown
Elevation
Unknown
Doppler factor
Unknown
Orbital elements
Apogee altitude
485.904 km
Perigee altitude
484.073 km
Semi-major axis
6,863.125 km
Eccentricity
0.00013
Inclination
43.0016°
RAAN
46.7939°
Arg. of periapsis
242.1415°
True anomaly
117.9437°
Mean anomaly
117.9302°
Eccentric anomaly
117.93695°
Mean motion
3.81733 °/min
Orbital period
94.31 mins
BSTAR
0.00045927
Loading maneuver chart data...
Computing Atmospheric mass density...
Loading historical data...
Loading historical data...
Loading historical data...
Loading historical data...
Loading historical data...
Loading historical data...
Loading historical data...

Documentation

Showing up to 5 results
|